星链-38008(STARLINK-38008)

导读

STARLINK-38008(NORAD ID 69724,国际编号2025-158M)是美国SpaceX公司建造的星链低轨互联网星座卫星,设计寿命约5年,当前运行于约550千米高度的近地轨道,状态为在轨运行。该卫星是星链巨型星座的组成单元之一,依托星间链路与地面站协同,可提供超1Gbps速率的高速互联网接入服务,重点为通信基础设施薄弱区域提供网络覆盖,同时其低轨运行特性也对光学与射电天文观测存在一定潜在干扰。

基本信息
目录编号:
69724
目录名称:
STARLINK-38008
国际标识:
2026-147W
轨道中心:
EARTH
卫星名称:
星链-38008
卫星全名:
星链-38008(STARLINK-38008)
卫星状态:
在轨 (已飞行68 天)
发射日期:
2026-06-28 UTC
国别 :
美国 (US)
星等 :
--
轨道信息
数据来源 国际轨道数据
星历时间: 2026-09-04T10:20:26+0800
7小时前
查看轨道信息
半长轴: 6843.679km
偏心率: 0.0001361
轨道倾角: 97.284°
近地点辐角 99.444°
升交点赤经 283.750°
平近点角 260.696°
近地点: 464.61km
远地点: 466.474km
周期: 93.906分钟
每日圈数: 15.334455
详细信息
固有亮度:
5
最大亮度:
2.5
卫星平台:
Starlink V1.0
覆盖范围:
全球
运营商:
太空探索技术公司
运营商所在国:
美国
制造商(研发单位):
太空探索技术公司
制造商所在国:
美国
使用方式:
暂无
卫星简介
Starlink 计划是 SpaceX 推出的全球卫星互联网项目,通过发射低轨道卫星,为全球尤其是偏远地区提供高速、低延迟的互联网服务。自 2019 年起,Starlink 已部署数千颗卫星,旨在缩小全球数字鸿沟,推动互联网普及。该项目还为军事、航空等行业提供通信支持,带来广泛经济效益。
2D轨道图
3D轨道图
轨道高度分析图
轨道倾角分析图
轨道综合分析图
查看轨道综合分析图
交会数据列表
事件ID 空间交会对象 最接近时刻(TCA) 交会距离 交会风险概率(CRP) 交会风险指数(CRI) 操作
CDM_260905-101904-775306-972421
2026-09-05T
10:19:49+0000
1.855 km
极远距离
3.474577E-6 低风险 0.46
CDM_260905-022204-859306-972421
2026-09-05T
02:22:47+0000
2.460 km
极远距离
1.589479E-6 低风险 0.39
CDM_260906-012904-787306-972421
2026-09-06T
01:29:24+0000
2.625 km
极远距离
1.584798E-6 低风险 0.39
CDM_260906-043704-782306-972421
2026-09-06T
04:37:42+0000
2.648 km
极远距离
1.559512E-6 低风险 0.39
CDM_260830-192106-186906-972421
OBJECT A (61869)
2026-08-30T
19:21:20+0000
2.020 km
极远距离
1.323235E-6 低风险 0.37
CDM_260905-211105-230306-972421
2026-09-05T
21:11:02+0000
2.957 km
极远距离
1.093007E-6 低风险 0.36